User: anonymous   Login
Location: Archemont
(49.1579°N, 1.7598°E)
Time: 15:34:57
(UTC+00:00)
Language:

SR - Orbit

View from above orbital plane
View from above orbital plane
View from above satellite
View from above satellite

Ground track
Ground track

The orbit data is extracted from the following two-line orbital elements,

1 00046U 60007B   24103.61470684  .00002620  00000-0  52111-3 0  9992
2 00046  66.6902 232.8231 0202172 172.2600 188.1713 14.51668348341377
Epoch (UTC): 12 April 2024 14:45:10
Eccentricity: 0.0202172
inclination: 66.6902°
perigee height: 577 km
apogee height: 864 km
right ascension of ascending node: 232.8231°
argument of perigee: 172.2600°
revolutions per day: 14.51668348
mean anomaly at epoch: 188.1713°
orbit number at epoch: 34137

The dashed part of the orbit path shows where the satellite is in the earth's shadow,  

DLR